Location: Ferchesar
(52.6477°N, 12.4298°E)
Time: 14:26:08
(UTC+01:00)

deb Explorer IX - Pass Details

Date: 08 December 2021
Orbit: 544 x 1082 km, 38.8° (Epoch: 18 January)

Event Time Altitude Azimuth Distance (km) Brightness Sun altitude
Rises 11:15:01 0° 243° (WSW) 3,056 ? 13.9°
Reaches altitude 10° 11:18:36 10° 218° (SW) 2,025 ? 14.0°
Maximum altitude 11:20:53 14° 188° (S) 1,732 ? 14.1°
Drops below altitude 10° 11:23:05 10° 158° (SSE) 1,907 ? 14.1°
Sets 11:26:16 0° 131° (SE) 2,743 ? 14.2°
